Location: Unspecified
(0.0000°N, 0.0000°E)
Time: 08:42:53
(UTC+00:00)

Vanguard 2 Rocket - Pass Details

Date: 18 December 2018
Orbit: 556 x 3325 km, 32.9° (Epoch: 22 March)

Event Time Altitude Azimuth Distance (km) Brightness Sun altitude
Rises 14:56:18 0° 280° (W) 4,870 11.2 40.5°
Reaches altitude 10° 14:59:17 10° 273° (W) 4,213 11.1 39.9°
Maximum altitude 15:10:42 42° 206° (SSW) 3,360 11.2 37.4°
Drops below altitude 10° 15:28:00 10° 142° (SE) 6,199 11.1 33.7°
Sets 15:33:43 0° 135° (SE) 7,312 11.4 32.4°
